Location: Evensen
(52.5775°N, 9.5258°E)
Time: 11:05:10
(UTC+00:00)

Cosmos 2098 Rocket - Pass Details

Date: 15 May 2026
Orbit: 346 x 838 km, 82.9° (Epoch: 5 June)

Event Time Altitude Azimuth Distance (km) Brightness Sun altitude
Exits shadow 20:52:30 10° 181° (S) 2,084 5.3 -11.7°
Maximum altitude 20:57:06 72° 98° (E) 643 3.0 -12.1°
Drops below altitude 10° 21:01:06 10° 14° (NNE) 1,819 6.1 -12.5°
Sets 21:03:06 0° 12° (NNE) 2,635 7.0 -12.6°
